Year,Month,Day,Hour,Minute,Value (Times are PST for temperature in C)
2011,11,27,00,00,8.10
2011,11,27,00,01,8.00
2011,11,27,00,02,8.00
2011,11,27,00,03,7.90
2011,11,27,00,04,7.90
2011,11,27,00,05,7.80
2011,11,27,00,06,7.80
2011,11,27,00,07,7.80
2011,11,27,00,08,7.80
2011,11,27,00,09,7.80
2011,11,27,00,10,7.80
2011,11,27,00,11,7.80
2011,11,27,00,12,7.80
2011,11,27,00,13,7.80
2011,11,27,00,14,7.80
2011,11,27,00,15,7.80
2011,11,27,00,16,7.80
2011,11,27,00,17,7.70
2011,11,27,00,18,7.70
2011,11,27,00,19,7.70
2011,11,27,00,20,7.70
2011,11,27,00,21,7.70
2011,11,27,00,22,7.70
2011,11,27,00,23,7.70
2011,11,27,00,24,7.70
2011,11,27,00,25,7.70
2011,11,27,00,26,7.70
2011,11,27,00,27,7.70
2011,11,27,00,28,7.70
2011,11,27,00,29,7.70
2011,11,27,00,30,7.70
2011,11,27,00,31,7.70
2011,11,27,00,32,7.70
2011,11,27,00,33,7.70
2011,11,27,00,34,7.80
2011,11,27,00,35,7.80
2011,11,27,00,36,7.80
2011,11,27,00,37,7.80
2011,11,27,00,38,7.80
2011,11,27,00,39,7.80
2011,11,27,00,40,7.80
2011,11,27,00,41,7.80
2011,11,27,00,42,7.80
2011,11,27,00,43,7.80
2011,11,27,00,44,7.80
2011,11,27,00,45,7.80
2011,11,27,00,46,7.80
2011,11,27,00,47,7.80
2011,11,27,00,48,7.80
2011,11,27,00,49,7.80
2011,11,27,00,50,7.80
2011,11,27,00,51,7.80
2011,11,27,00,52,7.80
2011,11,27,00,53,7.80
2011,11,27,00,54,7.80
2011,11,27,00,55,7.70
2011,11,27,00,56,7.70
2011,11,27,00,57,7.70
2011,11,27,00,58,7.60
2011,11,27,00,59,7.60
2011,11,27,01,00,7.60
2011,11,27,01,01,7.60
2011,11,27,01,02,7.60
2011,11,27,01,03,7.60
2011,11,27,01,04,7.60
2011,11,27,01,05,7.60
2011,11,27,01,06,7.60
2011,11,27,01,07,7.60
2011,11,27,01,08,7.60
2011,11,27,01,09,7.60
2011,11,27,01,10,7.60
2011,11,27,01,11,7.60
2011,11,27,01,12,7.50
2011,11,27,01,13,7.50
2011,11,27,01,14,7.50
2011,11,27,01,15,7.50
2011,11,27,01,16,7.50
2011,11,27,01,17,7.50
2011,11,27,01,18,7.50
2011,11,27,01,19,7.50
2011,11,27,01,20,7.40
2011,11,27,01,21,7.40
2011,11,27,01,22,7.40
2011,11,27,01,23,7.40
2011,11,27,01,24,7.50
2011,11,27,01,25,7.50
2011,11,27,01,26,7.50
2011,11,27,01,27,7.50
2011,11,27,01,28,7.50
2011,11,27,01,29,7.50
2011,11,27,01,30,7.50
2011,11,27,01,31,7.50
2011,11,27,01,32,7.50
2011,11,27,01,33,7.50
2011,11,27,01,34,7.50
2011,11,27,01,35,7.60
2011,11,27,01,36,7.80
2011,11,27,01,37,8.00
2011,11,27,01,38,8.20
2011,11,27,01,39,8.30
2011,11,27,01,40,8.60
2011,11,27,01,41,9.00
2011,11,27,01,42,9.20
2011,11,27,01,43,9.30
2011,11,27,01,44,9.50
2011,11,27,01,45,9.60
2011,11,27,01,46,9.80
2011,11,27,01,47,10.00
2011,11,27,01,48,10.20
2011,11,27,01,49,10.40
2011,11,27,01,50,10.50
2011,11,27,01,51,10.60
2011,11,27,01,52,10.80
2011,11,27,01,53,10.90
2011,11,27,01,54,11.10
2011,11,27,01,55,11.20
2011,11,27,01,56,11.30
2011,11,27,01,57,11.40
2011,11,27,01,58,11.50
2011,11,27,01,59,11.60
2011,11,27,02,00,11.60
2011,11,27,02,01,11.70
2011,11,27,02,02,11.80
2011,11,27,02,03,11.80
2011,11,27,02,04,11.80
2011,11,27,02,05,11.90
2011,11,27,02,06,11.90
2011,11,27,02,07,12.00
2011,11,27,02,08,12.00
2011,11,27,02,09,12.00
2011,11,27,02,10,12.10
2011,11,27,02,11,12.10
2011,11,27,02,12,12.10
2011,11,27,02,13,12.20
2011,11,27,02,14,12.30
2011,11,27,02,15,12.30
2011,11,27,02,16,12.30
2011,11,27,02,17,12.30
2011,11,27,02,18,12.30
2011,11,27,02,19,12.30
2011,11,27,02,20,12.30
2011,11,27,02,21,12.20
2011,11,27,02,22,12.20
2011,11,27,02,23,12.10
2011,11,27,02,24,12.10
2011,11,27,02,25,12.10
2011,11,27,02,26,12.10
2011,11,27,02,27,12.10
2011,11,27,02,28,12.00
2011,11,27,02,29,12.00
2011,11,27,02,30,11.80
2011,11,27,02,31,11.70
2011,11,27,02,32,11.50
2011,11,27,02,33,11.40
2011,11,27,02,34,11.40
2011,11,27,02,35,11.40
2011,11,27,02,36,11.40
2011,11,27,02,37,11.30
2011,11,27,02,38,11.30
2011,11,27,02,39,11.20
2011,11,27,02,40,11.20
2011,11,27,02,41,11.10
2011,11,27,02,42,11.10
2011,11,27,02,43,11.00
2011,11,27,02,44,10.90
2011,11,27,02,45,10.80
2011,11,27,02,46,10.70
2011,11,27,02,47,10.60
2011,11,27,02,48,10.50
2011,11,27,02,49,10.40
2011,11,27,02,50,10.40
2011,11,27,02,51,10.40
2011,11,27,02,52,10.30
2011,11,27,02,53,10.30
2011,11,27,02,54,10.30
2011,11,27,02,55,10.20
2011,11,27,02,56,10.20
2011,11,27,02,57,10.10
2011,11,27,02,58,10.10
2011,11,27,02,59,10.10
2011,11,27,03,00,10.10
2011,11,27,03,01,10.10
2011,11,27,03,02,10.10
2011,11,27,03,03,10.10
2011,11,27,03,04,10.00
2011,11,27,03,05,9.90
2011,11,27,03,06,9.90
2011,11,27,03,07,9.90
2011,11,27,03,08,9.90
2011,11,27,03,09,9.90
2011,11,27,03,10,9.90
2011,11,27,03,11,9.90
2011,11,27,03,12,10.00
2011,11,27,03,13,10.10
2011,11,27,03,14,10.10
2011,11,27,03,15,10.20
2011,11,27,03,16,10.10
2011,11,27,03,17,10.10
2011,11,27,03,18,10.10
2011,11,27,03,19,10.20
2011,11,27,03,20,10.30
2011,11,27,03,21,10.30
2011,11,27,03,22,10.30
2011,11,27,03,23,10.20
2011,11,27,03,24,10.20
2011,11,27,03,25,10.10
2011,11,27,03,26,10.10
2011,11,27,03,27,10.10
2011,11,27,03,28,10.10
2011,11,27,03,29,10.10
2011,11,27,03,30,10.10
2011,11,27,03,31,10.10
2011,11,27,03,32,10.10
2011,11,27,03,33,10.10
2011,11,27,03,34,10.10
2011,11,27,03,35,10.10
2011,11,27,03,36,10.10
2011,11,27,03,37,10.10
2011,11,27,03,38,10.20
2011,11,27,03,39,10.30
2011,11,27,03,40,10.30
2011,11,27,03,41,10.40
2011,11,27,03,42,10.40
2011,11,27,03,43,10.40
2011,11,27,03,44,10.40
2011,11,27,03,45,10.40
2011,11,27,03,46,10.30
2011,11,27,03,47,10.30
2011,11,27,03,48,10.30
2011,11,27,03,49,10.30
2011,11,27,03,50,10.30
2011,11,27,03,51,10.30
2011,11,27,03,52,10.20
2011,11,27,03,53,10.10
2011,11,27,03,54,10.10
2011,11,27,03,55,10.10
2011,11,27,03,56,10.10
2011,11,27,03,57,10.00
2011,11,27,03,58,9.90
2011,11,27,03,59,9.90
2011,11,27,04,00,9.90
2011,11,27,04,01,9.90
2011,11,27,04,02,9.90
2011,11,27,04,03,9.90
2011,11,27,04,04,9.90
2011,11,27,04,05,9.90
2011,11,27,04,06,9.90
2011,11,27,04,07,9.90
2011,11,27,04,08,9.90
2011,11,27,04,09,9.90
2011,11,27,04,10,9.90
2011,11,27,04,11,9.90
2011,11,27,04,12,9.90
2011,11,27,04,13,9.90
2011,11,27,04,14,9.90
2011,11,27,04,15,9.90
2011,11,27,04,16,9.80
2011,11,27,04,17,9.80
2011,11,27,04,18,9.70
2011,11,27,04,19,9.70
2011,11,27,04,20,9.70
2011,11,27,04,21,9.70
2011,11,27,04,22,9.70
2011,11,27,04,23,9.70
2011,11,27,04,24,9.70
2011,11,27,04,25,9.70
2011,11,27,04,26,9.70
2011,11,27,04,27,9.70
2011,11,27,04,28,9.70
2011,11,27,04,29,9.70
2011,11,27,04,30,9.70
2011,11,27,04,31,9.70
2011,11,27,04,32,9.70
2011,11,27,04,33,9.70
2011,11,27,04,34,9.70
2011,11,27,04,35,9.70
2011,11,27,04,36,9.70
2011,11,27,04,37,9.70
2011,11,27,04,38,9.70
2011,11,27,04,39,9.70
2011,11,27,04,40,9.70
2011,11,27,04,41,9.70
2011,11,27,04,42,9.70
2011,11,27,04,43,9.60
2011,11,27,04,44,9.60
2011,11,27,04,45,9.60
2011,11,27,04,46,9.60
2011,11,27,04,47,9.50
2011,11,27,04,48,9.50
2011,11,27,04,49,9.50
2011,11,27,04,50,9.50
2011,11,27,04,51,9.40
2011,11,27,04,52,9.40
2011,11,27,04,53,9.40
2011,11,27,04,54,9.40
2011,11,27,04,55,9.40
2011,11,27,04,56,9.40
2011,11,27,04,57,9.40
2011,11,27,04,58,9.40
2011,11,27,04,59,9.40
2011,11,27,05,00,9.40
2011,11,27,05,01,9.40
2011,11,27,05,02,9.40
2011,11,27,05,03,9.40
2011,11,27,05,04,9.40
2011,11,27,05,05,9.40
2011,11,27,05,06,9.40
2011,11,27,05,07,9.40
2011,11,27,05,08,9.40
2011,11,27,05,09,9.40
2011,11,27,05,10,9.40
2011,11,27,05,11,9.30
2011,11,27,05,12,9.30
2011,11,27,05,13,9.30
2011,11,27,05,14,9.30
2011,11,27,05,15,9.20
2011,11,27,05,16,9.20
2011,11,27,05,17,9.20
2011,11,27,05,18,9.20
2011,11,27,05,19,9.20
2011,11,27,05,20,9.20
2011,11,27,05,21,9.20
2011,11,27,05,22,9.20
2011,11,27,05,23,9.20
2011,11,27,05,24,9.20
2011,11,27,05,25,9.20
2011,11,27,05,26,9.20
2011,11,27,05,27,9.30
2011,11,27,05,28,9.30
2011,11,27,05,29,9.30
2011,11,27,05,30,9.30
2011,11,27,05,31,9.30
2011,11,27,05,32,9.30
2011,11,27,05,33,9.30
2011,11,27,05,34,9.30
2011,11,27,05,35,9.30
2011,11,27,05,36,9.20
2011,11,27,05,37,9.20
2011,11,27,05,38,9.20
2011,11,27,05,39,9.20
2011,11,27,05,40,9.20
2011,11,27,05,41,9.20
2011,11,27,05,42,9.20
2011,11,27,05,43,9.20
2011,11,27,05,44,9.20
2011,11,27,05,45,9.20
2011,11,27,05,46,9.20
2011,11,27,05,47,9.20
2011,11,27,05,48,9.20
2011,11,27,05,49,9.20
2011,11,27,05,50,9.20
2011,11,27,05,51,9.20
2011,11,27,05,52,9.20
2011,11,27,05,53,9.20
2011,11,27,05,54,9.20
2011,11,27,05,55,9.20
2011,11,27,05,56,9.20
2011,11,27,05,57,9.20
2011,11,27,05,58,9.20
2011,11,27,05,59,9.20
2011,11,27,06,00,9.20
2011,11,27,06,01,9.20
2011,11,27,06,02,9.20
2011,11,27,06,03,9.20
2011,11,27,06,04,9.20
2011,11,27,06,05,9.20
2011,11,27,06,06,9.20
2011,11,27,06,07,9.20
2011,11,27,06,08,9.20
2011,11,27,06,09,9.20
2011,11,27,06,10,9.20
2011,11,27,06,11,9.20
2011,11,27,06,12,9.20
2011,11,27,06,13,9.20
2011,11,27,06,14,9.20
2011,11,27,06,15,9.20
2011,11,27,06,16,9.20
2011,11,27,06,17,9.20
2011,11,27,06,18,9.20
2011,11,27,06,19,9.20
2011,11,27,06,20,9.20
2011,11,27,06,21,9.20
2011,11,27,06,22,9.20
2011,11,27,06,23,9.10
2011,11,27,06,24,9.10
2011,11,27,06,25,9.10
2011,11,27,06,26,9.10
2011,11,27,06,27,9.10
2011,11,27,06,28,9.10
2011,11,27,06,29,9.20
2011,11,27,06,30,9.20
2011,11,27,06,31,9.20
2011,11,27,06,32,9.20
2011,11,27,06,33,9.20
2011,11,27,06,34,9.20
2011,11,27,06,35,9.20
2011,11,27,06,36,9.20
2011,11,27,06,37,9.20
2011,11,27,06,38,9.20
2011,11,27,06,39,9.20
2011,11,27,06,40,9.20
2011,11,27,06,41,9.20
2011,11,27,06,42,9.20
2011,11,27,06,43,9.30
2011,11,27,06,44,9.30
2011,11,27,06,45,9.40
2011,11,27,06,46,9.50
2011,11,27,06,47,9.60
2011,11,27,06,48,9.60
2011,11,27,06,49,9.60
2011,11,27,06,50,9.60
2011,11,27,06,51,9.60
2011,11,27,06,52,9.60
2011,11,27,06,53,9.60
2011,11,27,06,54,9.60
2011,11,27,06,55,9.60
2011,11,27,06,56,9.60
2011,11,27,06,57,9.60
2011,11,27,06,58,9.60
2011,11,27,06,59,9.60
2011,11,27,07,00,9.60
2011,11,27,07,01,9.60
2011,11,27,07,02,9.60
2011,11,27,07,03,9.60
2011,11,27,07,04,9.70
2011,11,27,07,05,9.70
2011,11,27,07,06,9.70
2011,11,27,07,07,9.70
2011,11,27,07,08,9.70
2011,11,27,07,09,9.70
2011,11,27,07,10,9.70
2011,11,27,07,11,9.70
2011,11,27,07,12,9.70
2011,11,27,07,13,9.70
2011,11,27,07,14,9.70
2011,11,27,07,15,9.70
2011,11,27,07,16,9.70
2011,11,27,07,17,9.80
2011,11,27,07,18,9.80
2011,11,27,07,19,9.80
2011,11,27,07,20,9.80
2011,11,27,07,21,9.70
2011,11,27,07,22,9.70
2011,11,27,07,23,9.80
2011,11,27,07,24,9.80
2011,11,27,07,25,9.90
2011,11,27,07,26,9.90
2011,11,27,07,27,9.90
2011,11,27,07,28,9.90
2011,11,27,07,29,10.10
2011,11,27,07,30,10.10
2011,11,27,07,31,10.00
2011,11,27,07,32,9.90
2011,11,27,07,33,9.90
2011,11,27,07,34,9.90
2011,11,27,07,35,10.00
2011,11,27,07,36,10.20
2011,11,27,07,37,10.20
2011,11,27,07,38,10.30
2011,11,27,07,39,10.30
2011,11,27,07,40,10.40
2011,11,27,07,41,10.40
2011,11,27,07,42,10.40
2011,11,27,07,43,10.40
2011,11,27,07,44,10.40
2011,11,27,07,45,10.40
2011,11,27,07,46,10.40
2011,11,27,07,47,10.40
2011,11,27,07,48,10.40
2011,11,27,07,49,10.40
2011,11,27,07,50,10.40
2011,11,27,07,51,10.40
2011,11,27,07,52,10.40
2011,11,27,07,53,10.40
2011,11,27,07,54,10.50
2011,11,27,07,55,10.60
2011,11,27,07,56,10.60
2011,11,27,07,57,10.60
2011,11,27,07,58,10.60
2011,11,27,07,59,10.60
2011,11,27,08,00,10.70
2011,11,27,08,01,10.70
2011,11,27,08,02,10.80
2011,11,27,08,03,10.80
2011,11,27,08,04,10.80
2011,11,27,08,05,10.80
2011,11,27,08,06,10.90
2011,11,27,08,07,10.90
2011,11,27,08,08,10.90
2011,11,27,08,09,10.90
2011,11,27,08,10,10.90
2011,11,27,08,11,10.90
2011,11,27,08,12,10.90
2011,11,27,08,13,10.90
2011,11,27,08,14,10.90
2011,11,27,08,15,10.90
2011,11,27,08,16,10.90
2011,11,27,08,17,10.90
2011,11,27,08,18,10.90
2011,11,27,08,19,10.90
2011,11,27,08,20,10.90
2011,11,27,08,21,10.90
2011,11,27,08,22,10.90
2011,11,27,08,23,11.00
2011,11,27,08,24,11.10
2011,11,27,08,25,11.10
2011,11,27,08,26,11.10
2011,11,27,08,27,11.10
2011,11,27,08,28,11.00
2011,11,27,08,29,10.90
2011,11,27,08,30,10.90
2011,11,27,08,31,10.90
2011,11,27,08,32,10.90
2011,11,27,08,33,10.80
2011,11,27,08,34,10.80
2011,11,27,08,35,10.80
2011,11,27,08,36,10.80
2011,11,27,08,37,10.70
2011,11,27,08,38,10.60
2011,11,27,08,39,10.60
2011,11,27,08,40,10.60
2011,11,27,08,41,10.60
2011,11,27,08,42,10.50
2011,11,27,08,43,10.40
2011,11,27,08,44,10.40
2011,11,27,08,45,10.40
2011,11,27,08,46,10.40
2011,11,27,08,47,10.40
2011,11,27,08,48,10.40
2011,11,27,08,49,10.40
2011,11,27,08,50,10.40
2011,11,27,08,51,10.40
2011,11,27,08,52,10.30
2011,11,27,08,53,10.20
2011,11,27,08,54,10.20
2011,11,27,08,55,10.00
2011,11,27,08,56,9.90
2011,11,27,08,57,9.90
2011,11,27,08,58,9.80
2011,11,27,08,59,9.80
2011,11,27,09,00,9.80
2011,11,27,09,01,9.80
2011,11,27,09,02,9.70
2011,11,27,09,03,9.70
2011,11,27,09,04,9.70
2011,11,27,09,05,9.70
2011,11,27,09,06,9.70
2011,11,27,09,07,9.70
2011,11,27,09,08,9.60
2011,11,27,09,09,9.60
2011,11,27,09,10,9.60
2011,11,27,09,11,9.60
2011,11,27,09,12,9.60
2011,11,27,09,13,9.60
2011,11,27,09,14,9.60
2011,11,27,09,15,9.60
2011,11,27,09,16,9.60
2011,11,27,09,17,9.60
2011,11,27,09,18,9.60
2011,11,27,09,19,9.60
2011,11,27,09,20,9.60
2011,11,27,09,21,9.60
2011,11,27,09,22,9.60
2011,11,27,09,23,9.60
2011,11,27,09,24,9.60
2011,11,27,09,25,9.60
2011,11,27,09,26,9.60
2011,11,27,09,27,9.60
2011,11,27,09,28,9.50
2011,11,27,09,29,9.50
2011,11,27,09,30,9.50
2011,11,27,09,31,9.50
2011,11,27,09,32,9.50
2011,11,27,09,33,9.50
2011,11,27,09,34,9.50
2011,11,27,09,35,9.50
2011,11,27,09,36,9.50
2011,11,27,09,37,9.50
2011,11,27,09,38,9.50
2011,11,27,09,39,9.50
2011,11,27,09,40,9.50
2011,11,27,09,41,9.50
2011,11,27,09,42,9.50
2011,11,27,09,43,9.50
2011,11,27,09,44,9.40
2011,11,27,09,45,9.40
2011,11,27,09,46,9.40
2011,11,27,09,47,9.40
2011,11,27,09,48,9.40
2011,11,27,09,49,9.40
2011,11,27,09,50,9.40
2011,11,27,09,51,9.40
2011,11,27,09,52,9.30
2011,11,27,09,53,9.30
2011,11,27,09,54,9.30
2011,11,27,09,55,9.30
2011,11,27,09,56,9.30
2011,11,27,09,57,9.30
2011,11,27,09,58,9.20
2011,11,27,09,59,9.20
2011,11,27,10,00,9.20
2011,11,27,10,01,9.20
2011,11,27,10,02,9.20
2011,11,27,10,03,9.20
2011,11,27,10,04,9.20
2011,11,27,10,05,9.20
2011,11,27,10,06,9.20
2011,11,27,10,07,9.20
2011,11,27,10,08,9.20
2011,11,27,10,09,9.20
2011,11,27,10,10,9.20
2011,11,27,10,11,9.20
2011,11,27,10,12,9.20
2011,11,27,10,13,9.20
2011,11,27,10,14,9.20
2011,11,27,10,15,9.20
2011,11,27,10,16,9.20
2011,11,27,10,17,9.20
2011,11,27,10,18,9.20
2011,11,27,10,19,9.20
2011,11,27,10,20,9.20
2011,11,27,10,21,9.20
2011,11,27,10,22,9.20
2011,11,27,10,23,9.20
2011,11,27,10,24,9.20
2011,11,27,10,25,9.20
2011,11,27,10,26,9.20
2011,11,27,10,27,9.20
2011,11,27,10,28,9.20
2011,11,27,10,29,9.20
2011,11,27,10,30,9.20
2011,11,27,10,31,9.20
2011,11,27,10,32,9.20
2011,11,27,10,33,9.20
2011,11,27,10,34,9.10
2011,11,27,10,35,9.10
2011,11,27,10,36,9.10
2011,11,27,10,37,9.10
2011,11,27,10,38,9.10
2011,11,27,10,39,9.00
2011,11,27,10,40,9.00
2011,11,27,10,41,9.00
2011,11,27,10,42,9.00
2011,11,27,10,43,9.00
2011,11,27,10,44,9.00
2011,11,27,10,45,9.00
2011,11,27,10,46,9.00
2011,11,27,10,47,9.00
2011,11,27,10,48,9.00
2011,11,27,10,49,9.00
2011,11,27,10,50,9.00
2011,11,27,10,51,9.00
2011,11,27,10,52,9.00
2011,11,27,10,53,9.00
2011,11,27,10,54,9.00
2011,11,27,10,55,9.00
2011,11,27,10,56,9.00
2011,11,27,10,57,9.00
2011,11,27,10,58,9.00
2011,11,27,10,59,9.00
2011,11,27,11,00,9.00
2011,11,27,11,01,9.00
2011,11,27,11,02,9.00
2011,11,27,11,03,9.00
2011,11,27,11,04,9.00
2011,11,27,11,05,9.00
2011,11,27,11,06,9.00
2011,11,27,11,07,9.10
2011,11,27,11,08,9.10
2011,11,27,11,09,9.10
2011,11,27,11,10,9.20
2011,11,27,11,11,9.20
2011,11,27,11,12,9.20
2011,11,27,11,13,9.20
2011,11,27,11,14,9.20
2011,11,27,11,15,9.20
2011,11,27,11,16,9.30
2011,11,27,11,17,9.30
2011,11,27,11,18,9.40
2011,11,27,11,19,9.40
2011,11,27,11,20,9.50
2011,11,27,11,21,9.50
2011,11,27,11,22,9.60
2011,11,27,11,23,9.70
2011,11,27,11,24,9.70
2011,11,27,11,25,9.70
2011,11,27,11,26,9.80
2011,11,27,11,27,9.80
2011,11,27,11,28,9.90
2011,11,27,11,29,9.90
2011,11,27,11,30,9.90
2011,11,27,11,31,9.90
2011,11,27,11,32,10.00
2011,11,27,11,33,10.10
2011,11,27,11,34,10.10
2011,11,27,11,35,10.10
2011,11,27,11,36,10.10
2011,11,27,11,37,10.00
2011,11,27,11,38,10.00
2011,11,27,11,39,10.00
2011,11,27,11,40,10.00
2011,11,27,11,41,10.10
2011,11,27,11,42,10.10
2011,11,27,11,43,10.10
2011,11,27,11,44,10.10
2011,11,27,11,45,10.10
2011,11,27,11,46,10.10
2011,11,27,11,47,10.10
2011,11,27,11,48,10.10
2011,11,27,11,49,10.10
2011,11,27,11,50,10.10
2011,11,27,11,51,10.10
2011,11,27,11,52,10.10
2011,11,27,11,53,10.10
2011,11,27,11,54,10.10
2011,11,27,11,55,10.10
2011,11,27,11,56,10.10
2011,11,27,11,57,10.10
2011,11,27,11,58,10.10
2011,11,27,11,59,10.10
2011,11,27,12,00,10.10
2011,11,27,12,01,10.10
2011,11,27,12,02,10.10
2011,11,27,12,03,10.10
2011,11,27,12,04,10.10
2011,11,27,12,05,10.10
2011,11,27,12,06,10.10
2011,11,27,12,07,10.10
2011,11,27,12,08,10.10
2011,11,27,12,09,10.10
2011,11,27,12,10,10.10
2011,11,27,12,11,10.10
2011,11,27,12,12,10.10
2011,11,27,12,13,10.10
2011,11,27,12,14,10.10
2011,11,27,12,15,10.10
2011,11,27,12,16,10.10
2011,11,27,12,17,10.10
2011,11,27,12,18,10.10
2011,11,27,12,19,10.10
2011,11,27,12,20,10.10
2011,11,27,12,21,10.10
2011,11,27,12,22,10.10
2011,11,27,12,23,10.10
2011,11,27,12,24,10.10
2011,11,27,12,25,10.10
2011,11,27,12,26,10.10
2011,11,27,12,27,10.10
2011,11,27,12,28,10.10
2011,11,27,12,29,10.10
2011,11,27,12,30,10.10
2011,11,27,12,31,10.10
2011,11,27,12,32,10.10
2011,11,27,12,33,10.10
2011,11,27,12,34,10.10
2011,11,27,12,35,10.10
2011,11,27,12,36,10.20
2011,11,27,12,37,10.20
2011,11,27,12,38,10.20
2011,11,27,12,39,10.20
2011,11,27,12,40,10.20
2011,11,27,12,41,10.20
2011,11,27,12,42,10.20
2011,11,27,12,43,10.20
2011,11,27,12,44,10.20
2011,11,27,12,45,10.20
2011,11,27,12,46,10.20
2011,11,27,12,47,10.20
2011,11,27,12,48,10.20
2011,11,27,12,49,10.20
2011,11,27,12,50,10.20
2011,11,27,12,51,10.20
2011,11,27,12,52,10.20
2011,11,27,12,53,10.30
2011,11,27,12,54,10.30
2011,11,27,12,55,10.30
2011,11,27,12,56,10.30
2011,11,27,12,57,10.30
2011,11,27,12,58,10.30
2011,11,27,12,59,10.30
2011,11,27,13,00,10.30
2011,11,27,13,01,10.30
2011,11,27,13,02,10.30
2011,11,27,13,03,10.30
2011,11,27,13,04,10.30
2011,11,27,13,05,10.30
2011,11,27,13,06,10.30
2011,11,27,13,07,10.30
2011,11,27,13,08,10.30
2011,11,27,13,09,10.30
2011,11,27,13,10,10.20
2011,11,27,13,11,10.30
2011,11,27,13,12,10.20
2011,11,27,13,13,10.20
2011,11,27,13,14,10.20
2011,11,27,13,15,10.20
2011,11,27,13,16,10.20
2011,11,27,13,17,10.10
2011,11,27,13,18,10.10
2011,11,27,13,19,10.10
2011,11,27,13,20,10.10
2011,11,27,13,21,10.10
2011,11,27,13,22,10.00
2011,11,27,13,23,9.90
2011,11,27,13,24,9.90
2011,11,27,13,25,9.90
2011,11,27,13,26,9.90
2011,11,27,13,27,9.90
2011,11,27,13,28,9.90
2011,11,27,13,29,9.90
2011,11,27,13,30,9.90
2011,11,27,13,31,9.90
2011,11,27,13,32,9.90
2011,11,27,13,33,9.90
2011,11,27,13,34,9.90
2011,11,27,13,35,9.90
2011,11,27,13,36,9.90
2011,11,27,13,37,9.80
2011,11,27,13,38,9.80
2011,11,27,13,39,9.80
2011,11,27,13,40,9.80
2011,11,27,13,41,9.70
2011,11,27,13,42,9.70
2011,11,27,13,43,9.70
2011,11,27,13,44,9.70
2011,11,27,13,45,9.70
2011,11,27,13,46,9.70
2011,11,27,13,47,9.80
2011,11,27,13,48,9.80
2011,11,27,13,49,9.80
2011,11,27,13,50,9.80
2011,11,27,13,51,9.80
2011,11,27,13,52,9.80
2011,11,27,13,53,9.70
2011,11,27,13,54,9.70
2011,11,27,13,55,9.70
2011,11,27,13,56,9.70
2011,11,27,13,57,9.70
2011,11,27,13,58,9.70
2011,11,27,13,59,9.70
2011,11,27,14,00,9.70
2011,11,27,14,01,9.70
2011,11,27,14,02,9.70
2011,11,27,14,03,9.70
2011,11,27,14,04,9.70
2011,11,27,14,05,9.70
2011,11,27,14,06,9.70
2011,11,27,14,07,9.70
2011,11,27,14,08,9.70
2011,11,27,14,09,9.70
2011,11,27,14,10,9.70
2011,11,27,14,11,9.70
2011,11,27,14,12,9.70
2011,11,27,14,13,9.70
2011,11,27,14,14,9.60
2011,11,27,14,15,9.60
2011,11,27,14,16,9.60
2011,11,27,14,17,9.70
2011,11,27,14,18,9.60
2011,11,27,14,19,9.60
2011,11,27,14,20,9.70
2011,11,27,14,21,9.70
2011,11,27,14,22,9.70
2011,11,27,14,23,9.70
2011,11,27,14,24,9.70
2011,11,27,14,25,9.70
2011,11,27,14,26,9.70
2011,11,27,14,27,9.70
2011,11,27,14,28,9.60
2011,11,27,14,29,9.50
2011,11,27,14,30,9.50
2011,11,27,14,31,9.40
2011,11,27,14,32,9.40
2011,11,27,14,33,9.30
2011,11,27,14,34,9.30
2011,11,27,14,35,9.30
2011,11,27,14,36,9.30
2011,11,27,14,37,9.20
2011,11,27,14,38,9.20
2011,11,27,14,39,9.20
2011,11,27,14,40,9.20
2011,11,27,14,41,9.20
2011,11,27,14,42,9.20
2011,11,27,14,43,9.20
2011,11,27,14,44,9.20
2011,11,27,14,45,9.20
2011,11,27,14,46,9.20
2011,11,27,14,47,9.20
2011,11,27,14,48,9.20
2011,11,27,14,49,9.20
2011,11,27,14,50,9.20
2011,11,27,14,51,9.20
2011,11,27,14,52,9.20
2011,11,27,14,53,9.20
2011,11,27,14,54,9.20
2011,11,27,14,55,9.20
2011,11,27,14,56,9.20
2011,11,27,14,57,9.20
2011,11,27,14,58,9.20
2011,11,27,14,59,9.20
2011,11,27,15,00,9.20
2011,11,27,15,01,9.20
2011,11,27,15,02,9.20
2011,11,27,15,03,9.20
2011,11,27,15,04,9.20
2011,11,27,15,05,9.20
2011,11,27,15,06,9.20
2011,11,27,15,07,9.20
2011,11,27,15,08,9.20
2011,11,27,15,09,9.20
2011,11,27,15,10,9.20
2011,11,27,15,11,9.20
2011,11,27,15,12,9.20
2011,11,27,15,13,9.10
2011,11,27,15,14,9.10
2011,11,27,15,15,9.00
2011,11,27,15,16,9.00
2011,11,27,15,17,9.00
2011,11,27,15,18,8.90
2011,11,27,15,19,8.90
2011,11,27,15,20,8.90
2011,11,27,15,21,8.80
2011,11,27,15,22,8.80
2011,11,27,15,23,8.80
2011,11,27,15,24,8.80
2011,11,27,15,25,8.70
2011,11,27,15,26,8.70
2011,11,27,15,27,8.70
2011,11,27,15,28,8.70
2011,11,27,15,29,8.70
2011,11,27,15,30,8.70
2011,11,27,15,31,8.70
2011,11,27,15,32,8.70
2011,11,27,15,33,8.60
2011,11,27,15,34,8.60
2011,11,27,15,35,8.60
2011,11,27,15,36,8.60
2011,11,27,15,37,8.60
2011,11,27,15,38,8.60
2011,11,27,15,39,8.60
2011,11,27,15,40,8.60
2011,11,27,15,41,8.60
2011,11,27,15,42,8.50
2011,11,27,15,43,8.50
2011,11,27,15,44,8.50
2011,11,27,15,45,8.50
2011,11,27,15,46,8.50
2011,11,27,15,47,8.50
2011,11,27,15,48,8.50
2011,11,27,15,49,8.50
2011,11,27,15,50,8.50
2011,11,27,15,51,8.40
2011,11,27,15,52,8.40
2011,11,27,15,53,8.40
2011,11,27,15,54,8.40
2011,11,27,15,55,8.40
2011,11,27,15,56,8.30
2011,11,27,15,57,8.30
2011,11,27,15,58,8.30
2011,11,27,15,59,8.30
2011,11,27,16,00,8.30
2011,11,27,16,01,8.20
2011,11,27,16,02,8.20
2011,11,27,16,03,8.20
2011,11,27,16,04,8.20
2011,11,27,16,05,8.20
2011,11,27,16,06,8.20
2011,11,27,16,07,8.20
2011,11,27,16,08,8.20
2011,11,27,16,09,8.20
2011,11,27,16,10,8.20
2011,11,27,16,11,8.20
2011,11,27,16,12,8.20
2011,11,27,16,13,8.20
2011,11,27,16,14,8.20
2011,11,27,16,15,8.20
2011,11,27,16,16,8.20
2011,11,27,16,17,8.20
2011,11,27,16,18,8.20
2011,11,27,16,19,8.10
2011,11,27,16,20,8.10
2011,11,27,16,21,8.10
2011,11,27,16,22,8.10
2011,11,27,16,23,8.10
2011,11,27,16,24,8.10
2011,11,27,16,25,8.10
2011,11,27,16,26,8.10
2011,11,27,16,27,8.10
2011,11,27,16,28,8.10
2011,11,27,16,29,8.10
2011,11,27,16,30,8.10
2011,11,27,16,31,8.00
2011,11,27,16,32,8.00
2011,11,27,16,33,8.00
2011,11,27,16,34,8.00
2011,11,27,16,35,7.90
2011,11,27,16,36,7.90
2011,11,27,16,37,7.90
2011,11,27,16,38,7.90
2011,11,27,16,39,7.90
2011,11,27,16,40,7.90
2011,11,27,16,41,7.90
2011,11,27,16,42,7.90
2011,11,27,16,43,7.90
2011,11,27,16,44,7.90
2011,11,27,16,45,7.80
2011,11,27,16,46,7.80
2011,11,27,16,47,7.80
2011,11,27,16,48,7.80
2011,11,27,16,49,7.80
2011,11,27,16,50,7.80
2011,11,27,16,51,7.80
2011,11,27,16,52,7.80
2011,11,27,16,53,7.70
2011,11,27,16,54,7.70
2011,11,27,16,55,7.70
2011,11,27,16,56,7.70
2011,11,27,16,57,7.60
2011,11,27,16,58,7.60
2011,11,27,16,59,7.60
2011,11,27,17,00,7.60
2011,11,27,17,01,7.60
2011,11,27,17,02,7.60
2011,11,27,17,03,7.60
2011,11,27,17,04,7.60
2011,11,27,17,05,7.60
2011,11,27,17,06,7.60
2011,11,27,17,07,7.60
2011,11,27,17,08,7.60
2011,11,27,17,09,7.60
2011,11,27,17,10,7.60
2011,11,27,17,11,7.50
2011,11,27,17,12,7.50
2011,11,27,17,13,7.50
2011,11,27,17,14,7.50
2011,11,27,17,15,7.50
2011,11,27,17,16,7.50
2011,11,27,17,17,7.40
2011,11,27,17,18,7.40
2011,11,27,17,19,7.40
2011,11,27,17,20,7.40
2011,11,27,17,21,7.40
2011,11,27,17,22,7.30
2011,11,27,17,23,7.30
2011,11,27,17,24,7.30
2011,11,27,17,25,7.30
2011,11,27,17,26,7.30
2011,11,27,17,27,7.30
2011,11,27,17,28,7.20
2011,11,27,17,29,7.20
2011,11,27,17,30,7.20
2011,11,27,17,31,7.20
2011,11,27,17,32,7.10
2011,11,27,17,33,7.10
2011,11,27,17,34,7.10
2011,11,27,17,35,7.10
2011,11,27,17,36,7.10
2011,11,27,17,37,7.00
2011,11,27,17,38,7.00
2011,11,27,17,39,7.00
2011,11,27,17,40,7.00
2011,11,27,17,41,7.10
2011,11,27,17,42,7.10
2011,11,27,17,43,7.10
2011,11,27,17,44,7.10
2011,11,27,17,45,7.10
2011,11,27,17,46,7.10
2011,11,27,17,47,7.10
2011,11,27,17,48,7.10
2011,11,27,17,49,7.10
2011,11,27,17,50,7.10
2011,11,27,17,51,7.10
2011,11,27,17,52,7.10